RH
58 59 58 58 59 62 64 64 66 70 67 72 75 79 77 78 76 74 78 72 78 73
60 61 63 61 61 62 65 65 68 73 71 71 75 77 82 80 79 78 80 80 77 84
70 72 65 65 69 66 67 71 68 74 74 71 75 79 80 83 80 84 83 79 90 83
60 61 69 79 69 68 77 66 77 75 74 76 76 78 84 82 84 86 86 89 84 91
68 68 65 76 87 77 76 79 71 71 76 76 80 80 83 87 85 88 89 86 92 87
71 73 72 72 77 85 79 72 78 71 77 79 83 83 84 85 87 88 87 84 86 85
66 72 79 75 72 73 81 80 76 76 72 78 80 84 84 86 88 89 88 81 82 81
60 68 77 80 81 79 76 75 79 76 76 80 81 85 87 87 89 89 87 87 88 87
57 65 74 81 84 85 89 86 88 84 79 83 84 99 100 93 89 89 88 93 94 97
55 59 66 77 88 89 91 92 92 91 89 86 84 100 100 100 88 92 92 95 99 100
55 62 71 77 88 92 93 94 94 94 93 92 90 100 100 100 89 96 97 98 98 98
54 59 65 76 87 93 95 96 97 97 97 97 99 100 100 100 97 99 99 99 100 99
51 60 67 71 84 90 96 97 98 98 98 100 100 100 100 100 100 100 100 100 100 100
54 60 68 75 81 88 95 98 99 100 99 99 100 100 100 100 98 99 100 100 100 100
Wind_Speed
22 14 15 15 13 12 12 13 16 16 17 18 17 15 15 11 12 13 13 18 14 11
15 14 13 16 13 11 12 10 13 14 17 18 17 17 16 14 15 13 13 15 14 11
7 11 14 11 12 14 11 12 13 14 17 19 17 17 18 14 15 14 12 12 13 14
5 7 7 9 14 13 10 13 9 13 16 17 18 17 16 18 16 17 15 13 16 14
4 6 7 7 7 11 12 9 11 11 13 15 17 18 19 18 16 17 17 17 14 17
0 3 6 7 7 7 10 12 9 11 12 14 16 17 18 18 17 18 18 17 18 17
6 4 5 7 8 8 8 10 12 12 13 14 15 16 17 17 17 18 17 17 16 16
5 6 6 7 7 8 8 9 10 12 13 12 14 13 17 18 18 17 17 13 14 14
5 6 7 7 7 8 7 8 8 11 12 12 10 16 20 19 17 18 17 15 14 11
6 6 7 10 7 7 8 6 8 9 8 12 14 16 20 22 16 15 15 13 11 7
6 6 6 9 11 8 6 7 7 7 8 10 10 12 17 21 17 14 15 15 14 12
5 7 7 7 8 9 6 6 7 6 7 7 7 10 14 15 13 10 10 11 11 13
7 7 8 8 7 6 6 7 5 7 7 7 6 7 9 14 8 8 7 5 6 12
9 8 8 7 5 6 6 6 5 6 5 6 5 7 8 12 10 10 9 9 8 6
Wind_Direction
202 206 210 209 207 211 208 209 207 207 209 210 208 208 207 205 210 209 214 217 216 219
211 215 209 217 216 214 211 207 204 200 207 210 208 207 203 210 212 209 210 218 217 214
188 212 222 225 221 221 216 207 202 199 205 210 208 206 206 212 217 209 213 214 209 216
207 213 210 219 229 225 212 213 202 204 209 208 207 208 206 214 213 214 212 210 215 213
211 223 228 233 231 221 214 205 213 208 210 213 208 205 206 210 210 213 214 214 208 214
95 280 274 263 239 229 228 229 219 217 207 208 209 208 207 208 209 213 217 212 214 215
349 328 287 273 263 246 224 224 221 215 219 210 209 209 207 207 209 214 217 217 218 217
331 311 301 290 272 259 248 239 227 224 219 209 207 205 204 207 210 213 215 209 208 211
349 326 300 285 282 288 273 257 236 228 227 221 218 207 199 199 206 210 208 198 203 195
324 308 303 287 280 279 282 287 267 249 228 230 229 210 203 201 207 202 199 188 172 165
296 297 306 304 280 269 270 272 271 267 247 239 238 208 204 199 201 195 185 172 170 168
276 286 282 285 287 275 256 254 259 260 265 257 249 214 211 194 191 179 175 167 170 164
268 253 254 264 274 276 252 252 252 262 251 241 246 219 232 213 172 184 170 162 158 161
257 248 246 253 260 269 265 257 252 260 281 269 248 215 240 259 174 187 172 178 162 143